Regional Weather Roundup
Issued by NWS Green Bay, WI

Home | Current Version | Previous Version | Text Only | Print | Product List | Glossary On
Versions: 1 2 3 4 5 6 7 8 9 10 11 12 13 14 15 16 17 18 19 20 21 22 23 24 25 26 27 28 29 30 31 32 33 34 35 36 37 38 39 40 41 42 43 44 45 46 47 48 49 50
000
ASUS43 KGRB 051400
RWRGRB

NORTH-CENTRAL AND NORTHEAST WISCONSIN REGIONAL WEATHER ROUNDUP
NATIONAL WEATHER SERVICE GREEN BAY WI
800 AM CST MON DEC 05 2016

WIZ005-009-010>012-018-019-051500-
NORTH CENTRAL WISCONSIN

CITY           SKY/WX    TMP DP  RH WIND       PRES   REMARKS
IRONWOOD       CLOUDY    32  28  85 SW8       29.79R
MANITOWISH WTR NOT AVBL
ARBOR VITAE    NOT AVBL
EAGLE RIVER    NOT AVBL
LAND O LAKES   NOT AVBL
RHINELANDER    MOCLDY    32  28  85 W10       29.82R
PHILLIPS       CLOUDY    29  29  98 SW6       29.81R
ANTIGO         NOT AVBL
TOMAHAWK       NOT AVBL
MERRILL        NOT AVBL
$$

WIZ013-073-051500-
NORTHEAST WISCONSIN

CITY           SKY/WX    TMP DP  RH WIND       PRES   REMARKS
IRON MOUNTAIN  CLOUDY    34  27  75 W5        29.79R
MARINETTE      CLOUDY    33  31  92 W6        29.88
$$

WIZ017-030-035>037-045-051500-
CENTRAL WISCONSIN

CITY           SKY/WX    TMP DP  RH WIND       PRES   REMARKS
MEDFORD        NOT AVBL
WAUSAU         CLOUDY    32  30  92 SW6       29.85R
MOSINEE        CLOUDY    32  32 100 SW7       29.87S
MARSHFIELD     CLOUDY    31  29  92 SW6       29.84S FOG
WISC RAPIDS    CLOUDY    32  31  96 SW3       29.89R
STEVENS POINT  NOT AVBL
WAUPACA        NOT AVBL
SHAWANO        NOT AVBL
CLINTONVILLE   NOT AVBL
WAUTOMA        CLOUDY    33  31  92 SW7       29.91R
$$

WIZ038-039-048-051-051500-
FOX VALLEY

CITY           SKY/WX    TMP DP  RH WIND       PRES   REMARKS
NWS GREEN BAY  MOCLDY    34  32  92 SW5       29.90S
APPLETON       MOCLDY    30  30 100 SW8       29.88S
OSHKOSH        CLOUDY    33  29  85 SW8       29.91S
FOND DU LAC    CLOUDY    33  28  81 SW5       29.92S
$$

WIZ022-050-052-051500-
EAST CENTRAL WISCONSIN

CITY           SKY/WX    TMP DP  RH WIND       PRES   REMARKS
EPHRAIM        NOT AVBL
WASHINGTON ISL NOT AVBL
STURGEON BAY   CLOUDY    35  31  85 SW9       29.90R
MANITOWOC      NOT AVBL
SHEBOYGAN      CLOUDY    33  29  85 SW8       29.93S
$$

LMZ563-521-522-541>543-051500-
LAKESHORE

STATION/POSITION TIME  TEMP    WIND        PRES    VSBY  WAVE
                       AIR SEA DIR/SP/G                  HT/PER
                 (UTC) (F)     (DEG/KT/KT) (MB)    (MI)  (FT/S)
SHEBOYGAN LKSHOR 1300   35     240/ 12/ 15 1014.2R
KEWAUNEE LKSHORE 1330   35     220/  5/  9 1012.3R
SISTER BAY LKSHO 1308   39     270/ 21/ 25   N/A
MENOMINEE LKSHOR 1330   34     220/ 10/ 12 1010.7R
$$



USA.gov is the U.S. government's official web portal to all federal, state and local government web resources and services.